Location: Peterborough
(44.3091°N, 78.3197°W)
Time: 23:33:16
(UTC-04:00)

Altair - Pass Details

Date: 04 August 2024
Orbit: 1501 x 1682 km, 47.2° (Epoch: 19 September)

Event Time Altitude Azimuth Distance (km) Brightness Sun altitude
Rises 21:13:12 0° 294° (WNW) 4,708 12.4 -7.1°
Reaches altitude 10° 21:16:22 10° 290° (WNW) 3,703 11.1 -7.6°
Maximum altitude 21:25:13 52° 218° (SW) 1,820 7.9 -8.9°
Drops below altitude 10° 21:33:57 10° 145° (SE) 3,643 8.9 -10.2°
Enters shadow 21:34:02 10° 145° (SE) 3,673 8.9 -10.2°
